When you browse on this site, cookies collect data to enhance your experience and personalize the content and advertising you see.
Visit our Privacy Policy to learn more. By continuing to use the site, you agree to this use of cookies and data.
  • In Romania
  • List of Countries
  • For 7 days
  • Water Temperature
  • Weather Map
  • Weather Widgets
  • user-avatar
    Login

    Hourly Weather Quito

    Today, 2 June, Tuesday

    Time Temperature Precipitation Wind Pressure Humidity
    00:00 +15°C° 0 mm 1 mps 624 mmHg 57%
    01:00 +15°C° 0 mm 1 mps 624 mmHg 57%
    02:00 +15°C° 0 mm 1 mps 624 mmHg 59%
    03:00 +14°C° 0 mm 1 mps 623 mmHg 61%
    04:00 +14°C° 0 mm 1 mps 623 mmHg 63%
    05:00 +15°C° 0 mm 1 mps 624 mmHg 63%
    06:00 +15°C° 0 mm 1 mps 624 mmHg 62%
    07:00 +16°C° 0 mm 1 mps 625 mmHg 60%
    08:00 +18°C° 0 mm 2 mps 626 mmHg 52%
    09:00 +21°C° 0 mm 3 mps 626 mmHg 44%
    10:00 +23°C° 0 mm 4 mps 627 mmHg 35%
    11:00 +25°C° 0 mm 3 mps 626 mmHg 33%
    12:00 +26°C° 0 mm 3 mps 626 mmHg 31%
    13:00 +26°C° 0 mm 3 mps 626 mmHg 28%
    14:00 +26°C° 0 mm 2 mps 625 mmHg 28%
    15:00 +26°C° 0 mm 2 mps 624 mmHg 28%
    16:00 +26°C° 0 mm 2 mps 624 mmHg 28%
    17:00 +23°C° 0 mm 2 mps 623 mmHg 34%
    18:00 +20°C° 0 mm 1 mps 623 mmHg 39%
    19:00 +16°C° 0 mm 1 mps 622 mmHg 45%
    20:00 +16°C° 0 mm 1 mps 623 mmHg 45%
    21:00 +14°C° 0 mm 0 mps 623 mmHg 46%
    22:00 +14°C° 0 mm 0 mps 623 mmHg 46%
    23:00 +15°C° 0 mm 1 mps 623 mmHg 48%

    Tomorrow, 3 June, Wednesday

    Time Temperature Precipitation Wind Pressure Humidity
    00:00 +14°C° 0 mm 1 mps 622 mmHg 51%
    01:00 +14°C° 0 mm 1 mps 622 mmHg 53%
    02:00 +13°C° 0 mm 1 mps 622 mmHg 55%
    03:00 +13°C° 0 mm 1 mps 622 mmHg 57%
    04:00 +12°C° 0 mm 1 mps 622 mmHg 59%
    05:00 +13°C° 0 mm 1 mps 622 mmHg 59%
    06:00 +13°C° 0 mm 1 mps 623 mmHg 58%
    07:00 +14°C° 0 mm 1 mps 623 mmHg 58%
    08:00 +16°C° 0 mm 2 mps 624 mmHg 49%
    09:00 +19°C° 0 mm 3 mps 625 mmHg 41%
    10:00 +22°C° 0 mm 3 mps 626 mmHg 32%
    11:00 +24°C° 0 mm 3 mps 625 mmHg 30%
    12:00 +26°C° 0 mm 2 mps 625 mmHg 28%
    13:00 +27°C° 0 mm 2 mps 625 mmHg 26%
    14:00 +27°C° 0 mm 2 mps 624 mmHg 27%
    15:00 +26°C° 0 mm 2 mps 624 mmHg 27%
    16:00 +26°C° 0 mm 2 mps 623 mmHg 28%
    17:00 +23°C° 0 mm 1 mps 623 mmHg 34%
    18:00 +20°C° 0 mm 1 mps 622 mmHg 39%
    19:00 +16°C° 0 mm 0 mps 622 mmHg 45%
    20:00 +16°C° 0 mm 1 mps 622 mmHg 45%
    21:00 +16°C° 0 mm 1 mps 622 mmHg 44%
    22:00 +16°C° 0 mm 1 mps 623 mmHg 44%
    23:00 +16°C° 0 mm 1 mps 623 mmHg 45%

    Day after tomorrow, 4 June, Thursday

    Time Temperature Precipitation Wind Pressure Humidity
    00:00 +15°C° 0 mm 1 mps 622 mmHg 46%
    01:00 +15°C° 0 mm 1 mps 622 mmHg 46%
    02:00 +14°C° 0 mm 1 mps 622 mmHg 49%
    03:00 +13°C° 0 mm 1 mps 622 mmHg 52%
    04:00 +13°C° 0 mm 1 mps 621 mmHg 54%
    05:00 +13°C° 0 mm 1 mps 622 mmHg 54%
    06:00 +13°C° 0 mm 1 mps 623 mmHg 54%
    07:00 +14°C° 0 mm 1 mps 623 mmHg 54%
    08:00 +18°C° 0 mm 1 mps 624 mmHg 47%
    09:00 +20°C° 0 mm 2 mps 625 mmHg 39%
    10:00 +24°C° 0 mm 2 mps 626 mmHg 31%
    11:00 +26°C° 0 mm 2 mps 626 mmHg 30%
    12:00 +27°C° 0 mm 2 mps 626 mmHg 28%
    13:00 +28°C° 0 mm 2 mps 626 mmHg 26%
    14:00 +28°C° 0 mm 2 mps 625 mmHg 26%
    15:00 +27°C° 0 mm 2 mps 624 mmHg 27%
    16:00 +27°C° 0 mm 2 mps 624 mmHg 27%
    17:00 +24°C° 0 mm 1 mps 623 mmHg 35%
    18:00 +21°C° 0 mm 1 mps 623 mmHg 43%
    19:00 +18°C° 0 mm 1 mps 622 mmHg 52%
    20:00 +18°C° 0 mm 1 mps 623 mmHg 51%
    21:00 +16°C° 0 mm 1 mps 623 mmHg 50%
    22:00 +15°C° 0 mm 0 mps 623 mmHg 49%
    23:00 +15°C° 0 mm 0 mps 623 mmHg 50%

    5 June, Friday

    Time Temperature Precipitation Wind Pressure Humidity
    00:00 +15°C° 0 mm 0 mps 623 mmHg 50%
    01:00 +14°C° 0 mm 0 mps 623 mmHg 51%
    02:00 +14°C° 0 mm 1 mps 623 mmHg 54%
    03:00 +14°C° 0 mm 1 mps 623 mmHg 56%
    04:00 +13°C° 0 mm 1 mps 623 mmHg 59%
    05:00 +13°C° 0 mm 1 mps 623 mmHg 59%
    06:00 +14°C° 0 mm 1 mps 624 mmHg 59%
    07:00 +14°C° 0 mm 1 mps 624 mmHg 58%
    08:00 +18°C° 0 mm 1 mps 625 mmHg 50%
    09:00 +21°C° 0 mm 2 mps 626 mmHg 42%
    10:00 +25°C° 0 mm 2 mps 627 mmHg 34%
    11:00 +26°C° 0 mm 2 mps 627 mmHg 32%
    12:00 +27°C° 0 mm 2 mps 626 mmHg 29%
    13:00 +28°C° 0 mm 2 mps 626 mmHg 27%
    14:00 +28°C° 0 mm 2 mps 626 mmHg 28%
    15:00 +28°C° 0 mm 2 mps 625 mmHg 28%
    16:00 +27°C° 0 mm 2 mps 625 mmHg 29%
    17:00 +24°C° 0 mm 2 mps 624 mmHg 35%
    18:00 +21°C° 0 mm 1 mps 624 mmHg 41%
    19:00 +18°C° 0 mm 1 mps 623 mmHg 48%
    20:00 +18°C° 0 mm 1 mps 623 mmHg 48%
    21:00 +15°C° 0 mm 0 mps 624 mmHg 48%
    22:00 +15°C° 0 mm 0 mps 624 mmHg 49%
    23:00 +15°C° 0 mm 0 mps 624 mmHg 49%

    6 June, Saturday

    Time Temperature Precipitation Wind Pressure Humidity
    00:00 +15°C° 0 mm 1 mps 624 mmHg 50%
    01:00 +15°C° 0 mm 1 mps 623 mmHg 50%
    02:00 +14°C° 0 mm 1 mps 623 mmHg 53%
    03:00 +13°C° 0 mm 1 mps 623 mmHg 55%
    04:00 +13°C° 0 mm 1 mps 623 mmHg 58%
    05:00 +13°C° 0 mm 1 mps 623 mmHg 57%
    06:00 +14°C° 0 mm 1 mps 624 mmHg 56%
    07:00 +14°C° 0 mm 1 mps 624 mmHg 56%
    08:00 +17°C° 0 mm 2 mps 625 mmHg 47%
    09:00 +20°C° 0 mm 3 mps 626 mmHg 39%
    10:00 +23°C° 0 mm 4 mps 627 mmHg 31%
    11:00 +25°C° 0 mm 4 mps 627 mmHg 29%
    12:00 +26°C° 0 mm 3 mps 626 mmHg 27%
    13:00 +27°C° 0 mm 3 mps 626 mmHg 25%
    14:00 +27°C° 0 mm 2 mps 626 mmHg 26%
    15:00 +27°C° 0 mm 2 mps 625 mmHg 26%
    16:00 +26°C° 0 mm 2 mps 625 mmHg 26%
    17:00 +24°C° 0 mm 2 mps 624 mmHg 31%
    18:00 +21°C° 0 mm 1 mps 624 mmHg 36%
    19:00 +18°C° 0 mm 1 mps 623 mmHg 41%
    20:00 +18°C° 0 mm 1 mps 624 mmHg 42%
    21:00 +16°C° 0 mm 1 mps 624 mmHg 43%
    22:00 +16°C° 0 mm 1 mps 624 mmHg 44%
    23:00 +15°C° 0 mm 1 mps 624 mmHg 46%

    7 June, Sunday

    Time Temperature Precipitation Wind Pressure Humidity
    00:00 +14°C° 0 mm 1 mps 623 mmHg 48%
    01:00 +14°C° 0 mm 2 mps 623 mmHg 51%
    02:00 +13°C° 0 mm 2 mps 623 mmHg 52%
    03:00 +12°C° 0 mm 2 mps 623 mmHg 53%
    04:00 +12°C° 0 mm 2 mps 622 mmHg 55%
    05:00 +12°C° 0 mm 2 mps 623 mmHg 54%
    06:00 +12°C° 0 mm 1 mps 623 mmHg 54%
    07:00 +12°C° 0 mm 1 mps 624 mmHg 54%
    08:00 +15°C° 0 mm 2 mps 625 mmHg 46%
    09:00 +19°C° 0 mm 3 mps 625 mmHg 38%
    10:00 +22°C° 0 mm 4 mps 626 mmHg 30%
    11:00 +24°C° 0 mm 3 mps 626 mmHg 28%
    12:00 +25°C° 0 mm 3 mps 626 mmHg 25%
    13:00 +27°C° 0 mm 2 mps 625 mmHg 23%
    14:00 +26°C° 0 mm 2 mps 625 mmHg 23%
    15:00 +26°C° 0 mm 2 mps 625 mmHg 23%
    16:00 +26°C° 0 mm 2 mps 624 mmHg 23%
    17:00 +23°C° 0 mm 2 mps 624 mmHg 28%
    18:00 +20°C° 0 mm 1 mps 623 mmHg 34%
    19:00 +16°C° 0 mm 1 mps 623 mmHg 39%
    20:00 +15°C° 0 mm 1 mps 623 mmHg 39%
    21:00 +15°C° 0 mm 1 mps 623 mmHg 40%
    22:00 +14°C° 0 mm 1 mps 624 mmHg 40%
    23:00 +14°C° 0 mm 1 mps 623 mmHg 43%
    Show more